Home > Weather > Albstadt > Past weeks

Flag for Germany Weather for the Past 2 Weeks in Albstadt, Baden-Württemberg, Germany

Now
34 °F

Light snow. Partly cloudy.


Feels Like: 34 °F
Forecast: 29 / 35 °F
Wind: 2 mph from North

Location: Stuttgart-Echterdingen

Current Time: Feb 12, 2016 at 5:09:15 AM

Latest Report: Feb 12, 2016 at 4:50 AM


Visibility: N/A

Pressure: 29.68 "Hg (27.10 "Hg at 729m altitude)

Humidity: 87%

Dew point: 30 °F

Location of AlbstadtLocation

Historic Weather in Albstadt — Graph

°F

Albstadt Temperature Yesterday

Maximum temperature yesterday: 43 °F (at 1:50 PM)
Minimum temperature yesterday: 34 °F (at 11:50 PM)
Average temperature yesterday: 38 °F

High & Low Weather Summary for the Past Weeks

 TemperatureHumidityPressure
High57 °F (Feb 6, 1:20 PM)100% (Jan 28, 7:20 PM)30.45 "Hg (Jan 28, 7:20 PM)
Low32 °F (Feb 6, 4:20 AM)44% (Feb 6, 1:20 PM)29.15 "Hg (Feb 9, 5:50 PM)
Average43 °F81%29.97 "Hg
* Reported Jan 28 3:20 AM — Feb 12 3:50 AM, Albstadt, Weather by CustomWeather, © 2016

Note: Actual official high and low records may vary slightly from our data, if they occured in-between our weather recording intervals... More about our weather records

Advertising

Albstadt Weather History for the Previous 24 Hours

 ConditionsComfort  
Time TempWeatherWind HumidityBarometerVisibility
3:50 AM
Fri, Feb 12
34 °FLight rain. Passing clouds.1 mph87%29.68 "HgN/A
3:20 AM34 °FPassing clouds.3 mph87%29.68 "HgN/A
2:50 AM34 °FPassing clouds.5 mph87%29.68 "HgN/A
2:20 AM36 °FPassing clouds.1 mph81%29.68 "HgN/A
1:50 AM36 °FPassing clouds.2 mph81%29.68 "HgN/A
1:20 AM34 °FPassing clouds.2 mph87%29.68 "HgN/A
12:50 AM34 °FPartly cloudy.1 mph87%29.71 "HgN/A
12:20 AM34 °FClear.2 mph87%29.71 "Hg10 mi
11:50 PM
Thu, Feb 11
34 °FClear.2 mph87%29.71 "Hg10 mi
10:50 PM36 °FClear.2 mph81%29.71 "Hg10 mi
10:20 PM36 °FPartly cloudy.2 mph81%29.71 "HgN/A
9:50 PM36 °FClear.1 mph81%29.71 "Hg10 mi
9:20 PM36 °FClear.1 mph75%29.71 "Hg10 mi
8:50 PM36 °FClear.1 mph75%29.71 "Hg10 mi
8:20 PM36 °FClear.No wind75%29.71 "Hg10 mi
7:50 PM36 °FClear.2 mph81%29.71 "Hg10 mi
7:20 PM37 °FClear.2 mph70%29.71 "Hg10 mi
6:50 PM39 °FClear.2 mph70%29.71 "Hg10 mi
6:20 PM39 °FPassing clouds.5 mph65%29.71 "HgN/A
5:50 PM39 °FPassing clouds.5 mph65%29.71 "HgN/A
5:20 PM39 °FSunny.6 mph65%29.71 "Hg10 mi
4:50 PM41 °FPassing clouds.6 mph61%29.71 "HgN/A
4:20 PM41 °FPassing clouds.6 mph57%29.71 "HgN/A
3:50 PM41 °FPassing clouds.9 mph61%29.71 "HgN/A
3:20 PM41 °FPassing clouds.13 mph57%29.71 "HgN/A
2:50 PM43 °FPassing clouds.14 mph57%29.71 "HgN/A
2:20 PM43 °FPartly sunny.15 mph61%29.71 "HgN/A
1:50 PM43 °FPartly sunny.12 mph57%29.71 "HgN/A
1:20 PM41 °FPartly sunny.14 mph66%29.74 "HgN/A
12:50 PM41 °FPartly sunny.13 mph66%29.74 "HgN/A
12:20 PM41 °FPartly sunny.10 mph66%29.74 "HgN/A
11:50 AM39 °FPartly sunny.13 mph75%29.74 "HgN/A
11:20 AM39 °FPartly sunny.13 mph75%29.74 "HgN/A
10:50 AM37 °FSprinkles. Broken clouds.10 mph81%29.74 "HgN/A
10:20 AM37 °FSprinkles. Broken clouds.14 mph81%29.74 "HgN/A
9:50 AM37 °FSnow flurries. Partly sunny.14 mph81%29.74 "HgN/A
9:20 AM37 °FPartly sunny.14 mph81%29.74 "HgN/A
8:50 AM37 °FPartly sunny.8 mph81%29.71 "HgN/A
8:20 AM37 °FPartly sunny.10 mph81%29.71 "HgN/A
7:50 AM37 °FPartly sunny.9 mph81%29.71 "HgN/A
7:20 AM36 °FPassing clouds.12 mph87%29.71 "HgN/A
6:50 AM36 °FPartly cloudy.10 mph87%29.71 "HgN/A
6:20 AM36 °FPassing clouds.10 mph87%29.71 "HgN/A
5:50 AM36 °FPassing clouds.10 mph87%29.71 "HgN/A
5:20 AM36 °FPartly cloudy.12 mph87%29.71 "HgN/A
Weather by CustomWeather, © 2016

See weather overviewHow to use our weather pages